Regional Weather Roundup
Issued by NWS Green Bay, WI

Home | Current Version | Previous Version | Graphics & Text | Print | Product List | Glossary Off
Versions: 1 2 3 4 5 6 7 8 9 10 11 12 13 14 15 16 17 18 19 20 21 22 23 24 25 26 27 28 29 30 31 32 33 34 35 36 37 38 39 40 41 42 43 44 45 46 47 48 49 50

000
ASUS43 KGRB 302011
RWRGRB

NORTH-CENTRAL AND NORTHEAST WISCONSIN REGIONAL WEATHER ROUNDUP
NATIONAL WEATHER SERVICE GREEN BAY WI
300 PM CDT TUE JUN 30 2015

WIZ005-009-010>012-018-019-302100-
NORTH CENTRAL WISCONSIN

CITY           SKY/WX    TMP DP  RH WIND       PRES   REMARKS
IRONWOOD       PTSUNNY   55  48  76 N9        29.96S
MANITOWISH WTR MOSUNNY   60  50  69 NE9G16    29.95S
ARBOR VITAE    CLOUDY    62  52  70 N12G17    29.94S
EAGLE RIVER    CLOUDY    58  48  69 N12G18    29.94S
LAND O LAKES   CLOUDY    54  48  81 N12       29.96S
RHINELANDER    CLOUDY    60  50  69 N10       29.93F
PHILLIPS       PTSUNNY   63  52  68 N9        29.94R
ANTIGO         CLOUDY    63  54  74 N10       29.90F
TOMAHAWK       CLOUDY    61  51  69 N7        29.93F
MERRILL        CLOUDY    63  54  71 N8        29.92S
$$

WIZ013-073-302100-
NORTHEAST WISCONSIN

CITY           SKY/WX    TMP DP  RH WIND       PRES   REMARKS
IRON MOUNTAIN  CLOUDY    59  49  69 NW16G22   29.89S
MARINETTE      CLOUDY    66  54  63 N9        29.84S
OCONTO         CLOUDY    66  55  67 N9        29.84S
$$

WIZ017-030-035>037-045-302100-
CENTRAL WISCONSIN

CITY           SKY/WX    TMP DP  RH WIND       PRES   REMARKS
MEDFORD        CLOUDY    63  53  68 N9        29.93S
WAUSAU         CLOUDY    66  52  60 N12       29.89S
MOSINEE        NOT AVBL
MARSHFIELD     CLOUDY    70  53  54 N12G17    29.90S
WISC RAPIDS    MOSUNNY   73  50  44 N12G18    29.89S
STEVENS POINT  MOSUNNY   68  53  59 NW10      29.88S
WAUPACA        PTSUNNY   74  56  52 N9        29.85F
SHAWANO        CLOUDY    70  56  60 N9        29.86S
CLINTONVILLE   CLOUDY    68  54  60 N9        29.86S
$$

WIZ038-039-048-051-302100-
FOX VALLEY

CITY           SKY/WX    TMP DP  RH WIND       PRES   REMARKS
NWS GREEN BAY  CLOUDY    68  58  70 E7        29.85S
APPLETON       PTSUNNY   70  54  56 N14       29.86S
OSHKOSH        MOSUNNY   73  58  59 N12G21    29.84S
FOND DU LAC    PTSUNNY   72  59  63 N15       29.85R
$$

WIZ022-050-052-302100-
EAST CENTRAL WISCONSIN

CITY           SKY/WX    TMP DP  RH WIND       PRES   REMARKS
STURGEON BAY   CLOUDY    63  55  77 N13       29.87S
MANITOWOC      CLOUDY    66  58  75 MISG      29.84S
SHEBOYGAN      CLOUDY    68  57  68 N13       29.83S
$$

LMZ563-521-522-541>543-302100-
LAKESHORE

STATION/POSITION TIME  TEMP    WIND        PRES    VSBY  WAVE
                       AIR SEA DIR/SP/G                  HT/PER
                 (UTC) (F)     (DEG/KT/KT) (MB)    (MI)  (FT/S)
SHEBOYGAN LKSHOR 2000   58      30/ 13/ 15 1010.7R
KEWAUNEE LKSHORE 1900   62      30/  7/ 10 1010.2F
ALGOMA MARINA    1940           90/ 11/ 13   N/A
NORTHPORT PIER   1900   57     350/ 16/ 18 1011.2S
N MID LAKE BUOY  1950   49 44  320/ 14/ 17 1010.4F         2/ 4
SISTER BAY LKSHO 1944   61      10/ 14/ 18   N/A
CHAMBERS ISLAND  1900   63     340/ 14/ 16 1010.8F
MENOMINEE LKSHOR 1900   64     340/ 13/ 15 1011.3F
$$



USA.gov is the U.S. government's official web portal to all federal, state and local government web resources and services.